Regional Weather Roundup
Issued by NWS

Home | Current Version | Previous Version | Text Only | Print | Product List | Glossary On
Versions: 1 2 3 4 5 6 7 8 9 10 11 12 13 14 15 16 17 18 19 20 21 22 23 24 25 26 27 28 29 30 31 32 33 34 35 36 37 38 39 40 41 42 43 44 45 46 47 48 49 50
000
ASHW40 PHFO 310010
RWRHI

WEATHER ROUNDUP FOR HAWAII
NATIONAL WEATHER SERVICE HONOLULU HI
200 PM HST MON MAR 30 2015

THIS IS AN AUTOMATED REPORT THAT HAS NOT BEEN QUALITY CONTROLLED.

NOTE..."FAIR" INDICATES FEW OR NO CLOUDS BELOW 12,000 FEET WITH NO
SIGNIFICANT WEATHER AND/OR OBSTRUCTIONS TO VISIBILITY.

* - THESE SITES REPORT LIMITED FIELDS

HIZ001>004-310100-
KAUAI-NIIHAU-

CITY           SKY/WX    TMP DP  RH WIND       PRES   REMARKS
LIHUE APT      CLOUDY    80  66  62 E12       30.10F
PORT ALLEN*      N/A     82 N/A N/A E20G28      N/A
POIPU*           N/A     81 N/A N/A NE10G20     N/A
PRINCEVILLE*     N/A     75 N/A N/A MISG        N/A
KOKOLE POINT*  NOT AVBL
MOLOAA DAIRY*  NOT AVBL
WAIMEA HTS*    NOT AVBL
PUU OPAE*      NOT AVBL
PUU LUA*       NOT AVBL
MAKAHA RIDGE*  NOT AVBL
$$

HIZ005>011-310100-
OAHU-

CITY           SKY/WX    TMP DP  RH WIND       PRES   REMARKS
HONOLULU       MOSUNNY   79  61  53 E14G24    30.05F
KALAELOA       MOSUNNY   83  63  50 E8G17     30.07F
KANEOHE MCB    PTSUNNY   81  66  60 NE12G18   30.06F
WHEELER FIELD  FAIR      78  62  56 E14G25    30.08F
BELLOWS*       NOT AVBL
KAHUKU*        NOT AVBL
WHEELER*       NOT AVBL
WAIANAE HARBOR NOT AVBL
DILLINGHAM*      N/A     84  63  48 MISG        N/A
KAHUKU TRN*      N/A     66  55  68 E12G28      N/A
KAWAILOA*        N/A     75  63  64 E13G24      N/A
KII*             N/A     79  68  69 E18G24      N/A
MAKUA RANGE*     N/A     82  64  54 W6G12       N/A
OAHU FOREST NW NOT AVBL
SCHOFIELD BRK*   N/A     64  50  59 MISG        N/A
SCHOFIELD S*   NOT AVBL
WAIANAE VLY*   NOT AVBL
KUAOKALA*      NOT AVBL
HONOULIUULI*   NOT AVBL
MOKUOLOE IS*   NOT AVBL
PALEHUA*       NOT AVBL
WAIAWA PHB*    NOT AVBL
$$

HIZ012>013-310100-
MOLOKAI-

CITY           SKY/WX    TMP DP  RH WIND       PRES   REMARKS
MOLOKAI AIRPT  MOSUNNY   78  65  63 NE20G28   30.07F
KALAUPAPA      NOT AVBL
MAKAPULAPAI*   NOT AVBL
MOLOKAI 1*     NOT AVBL
PUU ALII*      NOT AVBL
$$

HIZ016-310100-
KAHOOLAWE-

CITY           SKY/WX    TMP DP  RH WIND       PRES   REMARKS
KAHOOLAWE*     NOT AVBL
HAKIOAWA*      NOT AVBL
HONOKANAIA*      N/A     82  63  51 NE18G36   30.06
KANELOA*         N/A     79  66  65 MISG      29.31F
KEALIALALO*    NOT AVBL
LUA MAKIKA*    NOT AVBL
$$

HIZ014>015-310100-
LANAI-

CITY           SKY/WX    TMP DP  RH WIND       PRES   REMARKS
LANAI CITY     NOT AVBL
LANAI 1*       NOT AVBL
$$

HIZ017>028-310100-
MAUI-

CITY           SKY/WX    TMP DP  RH WIND       PRES   REMARKS
KAHULUI        MOSUNNY   83  64  52 E23G31    30.04F
KAPALUA-W MAUI MOSUNNY   77  64  65 NE14G28   30.08
HANA AIRPORT   CLOUDY    75  68  78 SE3       30.11F
HANA*          NOT AVBL
HALEAKALA SUMM   N/A     54   5  14 S13         N/A
MAALAEA BAY*   NOT AVBL
HALEAKALA*     NOT AVBL
KAUPO GAP*     NOT AVBL
KULA 1*          N/A     59  53  80 NW6G14      N/A
$$

HIZ023>026-310100-
BIG ISLAND OF HAWAII COAST AND LOWER SLOPES-

CITY           SKY/WX    TMP DP  RH WIND       PRES   REMARKS
KAILUA KONA    MOSUNNY   83  67  58 SW10      30.02F
HILO           PTSUNNY   79  66  64 NE13      30.08F
HONOKAA*       NOT AVBL
KAWAIHAE MWT*  NOT AVBL
KAWAIHAE*      NOT AVBL
SOUTH POINT*   NOT AVBL
UPOLU AIRPORT* NOT AVBL
KAMUELA*       CLOUDY    72  63  73 N15       30.14S
HAKALAU*         N/A     62  53  71 SE7G15      N/A
KALOKO-HONOKO* NOT AVBL
PALI 2*          N/A     75  57  53 NE18G26     N/A
KEALAKOMO*       N/A     81  64  57 E15G24      N/A
KAUPULEHU*     NOT AVBL
KAPAPALA*        N/A     73  62  68 SE5G18      N/A
LOWER KAHUKU*  NOT AVBL
PUHE CS*       NOT AVBL
PUHO CS*       NOT AVBL
PTA KEAMUKU*     N/A     68  59  73 CALM        N/A
WAIKOLOA*      NOT AVBL
$$

HIZ027>028-310100-
BIG ISLAND OF HAWAII INTERIOR AND SUMMMITS-

CITY           SKY/WX    TMP DP  RH WIND       PRES   REMARKS
BRADSHAW FIELD MOSUNNY   66  53  62 W10G16    30.33F
MK VISITOR CEN NOT AVBL
MAUNA KEA*       N/A     46   9  21 S8          N/A
MAUNA LOA*       N/A     52  36  54 MISG        N/A
MAUNA LOA 1*   NOT AVBL
PTA KIPUKA*      N/A     70  54  56 NW8G16      N/A
PTA RANGE 17*    N/A     52  41  66 NW12G20     N/A
PTA WEST*        N/A     72  63  73 NW13G18     N/A
NENE CABIN*    NOT AVBL
AHUMOA*        NOT AVBL
PTA PORTABLE*  NOT AVBL
PUU MALI*        N/A     61  52  72 CALM        N/A
$$

HIC003-310100-
NORTHWEST ISLANDS-

CITY           SKY/WX    TMP DP  RH WIND       PRES   REMARKS
MIDWAY ISLAND  SUNNY     70  52  52 NE13      30.32F
MIDWAY NOS*    NOT AVBL
FRENCH FRIGATE NOT AVBL
$$

PHZ110>124-180-310100-
BUOY REPORTS

STATION/POSITION TIME  TEMP    WIND        PRES    WAVE   SWELL
                       AIR SEA DIR/SP/G            HT/PER HT/DIR
                 (UTC) (F)     (DEG/KT/KT) (MB)    (FT/S) (FT/D)
BUOY 51001       NOT AVBL
BUOY 51101       0000   70 71   80/ 17/ 21 1019.3F   9/14   5/320
BUOY 51100       0000   74 76  100/ 16/ 19 1020.1
BUOY 51003       2300   77 78  110/ 10/ 12 1018.5F   7/ 9   7
BUOY 51004       NOT AVBL
BARBERS PT BUOY  NOT AVBL
WAIMEA BAY BUOY  0000      77                N/A     6/14   5/300
KAILUA BAY BUOY  0000      77                N/A     7/ 7   3/ 30
LANAI BUOY       0000      78                N/A     3/14   2/220
BARBERS PT 2     0000      77                N/A     4/14   3/220
PAUWELA MAUI     0000      76                N/A     8/ 9   3/310
HILO             0000      77                N/A     8/ 9   3/340
KANEOHE BAY BUOY 0000      76                N/A     6/ 9   2/ 10
HANALEI KAUAI    0000      75                N/A     7/13   3/320
KAHULUI HARBOR   0000   76 77   50/ 17/ 27 1017.2F
HONOLULU HARBOR  0000   80 76  100/  7/ 16 1018.1F
KILO NALU        NOT AVBL
HILO HARBOR      0000   77 77   10/  5/ 10 1018.4F
MOKUOLOE         0000   80 77  100/ 10/ 14 1019.0F
NAWILIWILI       0000   75 79   80/ 10/ 12 1018.9F
WHOTS BUOY       NOT AVBL
BUOY 51028       NOT AVBL
$$

......................KEY........................................
  SKY/WX - SKY CONDITIONS/PRESENT WEATHER
  TMP    - TEMPERATURE IN FAHRENHEIT
  DWPT   - DEWPOINT IN FAHRENHEIT
  RH     - RELATIVE HUMIDITY IN PERCENT
  WIND   - DIRECTION AND SPEED /MPH FOR ISLANDS...KTS FOR BUOYS/
  PRES   - MEAN SEA LEVEL PRESSURE IN INCHES OF HG
  VSB    - VISIBILITY IN MILES
  HX     - HEAT INDEX
  WCI    - WIND CHILL INDEX
  VRB    - VARIABLE WIND DIRECTION
  N/A    - NOT AVAILABLE



USA.gov is the U.S. government's official web portal to all federal, state and local government web resources and services.